Regional Weather Roundup
Issued by NWS

Home | Current Version | Previous Version | Text Only | Print | Product List | Glossary On
Versions: 1 2 3 4 5 6 7 8 9 10 11 12 13 14 15 16 17 18 19 20 21 22 23 24 25 26 27 28 29 30 31 32 33 34 35 36 37 38 39 40 41 42 43 44 45 46 47 48 49 50
000
ASUS43 KOAX 021202
RWRNE

WEATHER ROUNDUP FOR NEBRASKA
NATIONAL WEATHER SERVICE OMAHA NE
700 AM CDT WED SEP 02 2015

NOTES: SATELLITE DATA IS BEING USED TO AUGMENT CLOUD COVER ABOVE
       12000 FEET.
       "FAIR" INDICATES FEW OR NO CLOUDS BELOW 12,000 FEET WITH NO
       SIGNIFICANT WEATHER AND/OR OBSTRUCTIONS TO VISIBILITY.

  * THESE STATIONS DO NOT REPORT WEATHER SUCH AS RAIN...SNOW OR FOG.

NEZ001>004-019>022-054>056-021300-
NEBRASKA PANHANDLE

CITY           SKY/WX    TMP DP  RH WIND       PRES   REMARKS
SCOTTSBLUFF    MOCLDY    56  51  84 NW7       29.97S
6HR MIN TEMP:  54; 6HR MAX TEMP:  63;

ALLIANCE       PTCLDY    52  46  80 W7        29.95S
6HR MIN TEMP:  52; 6HR MAX TEMP:  65;

CHADRON        MOCLDY    59  45  59 SW6       29.90R
6HR MIN TEMP:  53; 6HR MAX TEMP:  60;

KIMBALL        MOCLDY    55  43  62 W5        30.02R
SIDNEY         PTCLDY    57  42  57 W10       30.00R
6HR MIN TEMP:  54; 6HR MAX TEMP:  72;

$$

NEZ057>060-069>072-079>082-021300-
SOUTHWEST NEBRASKA

CITY           SKY/WX    TMP DP  RH WIND       PRES   REMARKS
NORTH PLATTE   CLEAR     60  57  89 CALM      29.90S
6HR MIN TEMP:  58; 6HR MAX TEMP:  67;

IMPERIAL       CLEAR     62  55  77 SW3       29.93R
6HR MIN TEMP:  58; 6HR MAX TEMP:  70;

LEXINGTON      CLEAR     60  58  93 CALM      29.89F
MC COOK        CLEAR     62  57  83 W7        29.90S
6HR MIN TEMP:  59; 6HR MAX TEMP:  71;

OGALLALA       CLEAR     57  54  87 W6        29.93S
$$

NEZ005>010-023>029-035>040-094-021300-
NORTH CENTRAL NEBRASKA

CITY           SKY/WX    TMP DP  RH WIND       PRES   REMARKS
VALENTINE      CLEAR     56  54  93 SW5       29.84F
6HR MIN TEMP:  56; 6HR MAX TEMP:  75;

BROKEN BOW     CLEAR     62  59  90 CALM      29.88S
6HR MIN TEMP:  60; 6HR MAX TEMP:  66;

O`NEILL        CLEAR     64  64  97 S6        29.85S
ORD            CLEAR     60  58  92 CALM      29.86R
6HR MIN TEMP:  58; 6HR MAX TEMP:  70;

THEDFORD       CLEAR     64  58  81 CALM      29.88S
$$

NEZ041-046>049-061>064-073>077-083>087-021300-
SOUTH CENTRAL NEBRASKA

CITY           SKY/WX    TMP DP  RH WIND       PRES   REMARKS
GRAND ISLAND   CLEAR     66  62  87 S7        29.89R
6HR MIN TEMP:  66; 6HR MAX TEMP:  76;

AURORA         CLEAR     69  65  89 S8        29.89R
HASTINGS       CLEAR     68  60  75 S7        29.89S
6HR MIN TEMP:  68; 6HR MAX TEMP:  76;

HEBRON         CLEAR     73  63  70 S7        29.89F
HOLDREGE       CLEAR     65  57  75 S3        29.89S
KEARNEY *      CLEAR     61  55  82 S5        29.89S
YORK           CLEAR     68  66  94 S7        29.89S
$$

NEZ011>018-030>034-042>045-021300-
NORTHEAST NEBRASKA

CITY           SKY/WX    TMP DP  RH WIND       PRES   REMARKS
NORFOLK        CLEAR     63  62  97 E5        29.86R FOG
6HR MIN TEMP:  63; 6HR MAX TEMP:  75;

ALBION         CLEAR     67  62  83 SE5       29.87R
BLAIR          FAIR      71  67  86 S8        29.90S
COLUMBUS *     CLEAR     70  63  78 S6        29.88R
FREMONT        CLEAR     72  67  86 SE7       29.89S
TEKAMAH        CLEAR     69  68  96 SE6       29.88S FOG
6HR MIN TEMP:  69; 6HR MAX TEMP:  75;

$$

NEZ050>053-065>068-078-088>093-021300-
SOUTHEAST NEBRASKA

CITY           SKY/WX    TMP DP  RH WIND       PRES   REMARKS
LINCOLN        CLEAR     70  66  87 S8        29.89S
6HR MIN TEMP:  70; 6HR MAX TEMP:  77;

OMAHA EPPLEY   PTCLDY    73  68  84 SE14      29.91R
6HR MIN TEMP:  73; 6HR MAX TEMP:  78;

BEATRICE       PTCLDY    71  66  84 S6        29.91S
FALLS CITY     CLOUDY    72  68  87 SE7       29.95R
6HR MIN TEMP:  71; 6HR MAX TEMP:  75;

NEBRASKA CITY  PTCLDY    72  66  81 S9        29.94R
PLATTSMOUTH    MOCLDY    72  67  85 SE14      29.92R
$$

NEZ044-045-051>053-067-021300-
OMAHA AREA

CITY           SKY/WX    TMP DP  RH WIND       PRES   REMARKS
EPPLEY FIELD   PTCLDY    73  68  84 SE14      29.91R
6HR MIN TEMP:  73; 6HR MAX TEMP:  78;

BLAIR          PTCLDY    71  67  86 S8        29.90S
FREMONT        CLEAR     72  67  86 SE7       29.89S
MILLARD        CLEAR     71  68  90 SE7       29.90S
OFFUTT AFB     PTCLDY    73  68  84 SE12      29.91R
PLATTSMOUTH    MOCLDY    72  67  85 SE14      29.92R
WAHOO          FAIR      69  67  94 SE8       29.88F FOG
$$



USA.gov is the U.S. government's official web portal to all federal, state and local government web resources and services.